Regional Weather Roundup
Issued by NWS Newport/Morehead, NC

Current Version | Previous Version | Text Only | Print | Product List | Glossary On
Versions: 1 2 3 4 5 6 7 8 9 10 11 12 13 14 15 16 17 18 19 20 21 22 23 24 25 26 27 28 29 30 31 32 33 34 35 36 37 38 39 40 41 42 43 44 45 46 47 48 49 50
000
ASUS42 KMHX 240125
RWRMHX
WEATHER ROUNDUP FOR EASTERN NORTH CAROLINA
NATIONAL WEATHER SERVICE NEWPORT/MOREHEAD CITY NC
800 PM EST FRI FEB 23 2018

NOTE: "FAIR" INDICATES FEW OR NO CLOUDS BELOW 12,000 FEET
WITH NO SIGNIFICANT WEATHER AND/OR OBSTRUCTIONS TO VISIBILITY

NCZ015>017-031-032-045>047-102-103-240200-
NORTH COAST

CITY           SKY/WX    TMP DP  RH WIND       PRES   REMARKS
EDENTON        FAIR      56  55  94 CALM      30.36F
ELIZABETH CITY FOG       51  51 100 SE8       30.36F VSB 1/4
KITTY HAWK     FOG      N/A N/A N/A CALM      30.36F VSB 3/4
MANTEO         FOG       48  48 100 CALM      30.38F VSB 1

$$

NCZ045>047-081-094-103-104-240200-
CENTRAL COAST

CITY           SKY/WX    TMP DP  RH WIND       PRES   REMARKS
FRISCO         MOCLDY    57  55  93 CALM      30.38S

$$

NCZ095-097-098-100-101-240200-
SOUTHERN COAST

CITY           SKY/WX    TMP DP  RH WIND       PRES   REMARKS
BEAUFORT       CLOUDY    64  62  93 S3        30.37S
CEDAR ISLAND   NOT AVBL
JACKSONVILLE   CLOUDY    65  64  97 S3        30.35F
PINEY ISLAND   NOT AVBL
WILMINGTON     FAIR      65  63  93 S7        30.36R


$$

NCZ011>013-027>030-043-044-078>080-089-090>093-098-240200-
COASTAL PLAIN

CITY           SKY/WX    TMP DP  RH WIND       PRES   REMARKS
AHOSKIE        FAIR      49  49 100 SE5       30.34F FOG
CLINTON        FAIR      68  65  91 S3        30.34S
ELIZABETHTOWN  NOT AVBL
GOLDSBORO      FAIR      69  62  77 S6        30.32S
GREENVILLE     FAIR      63  59  88 CALM      30.34F
HAVELOCK       CLOUDY    66  65  96 VRB5      30.37F
KENANSVILLE    FAIR      64  63  94 SE6       30.35S
KINSTON        FAIR      66  61  82 S6        30.35
NEW BERN       CLOUDY    64  61  90 S3        30.37S
RICHLANDS      CLOUDY    65  63  93 SE5       30.36F
ROCKY MOUNT    FAIR      56  54  93 CALM      30.33F
WASHINGTON     FAIR      65  60  84 S5        30.35F
WHITEVILLE     FAIR      66  63  90 S3        30.34F

$$

AMZ130-135-150-152-154-156-158-170-250-252-270-ANZ085-086-088-633-658-670-240200-
MARINE OBSERVATIONS

STATION/POSITION TIME  TEMP    WIND        PRES    WAVE   SWELL
                       AIR SEA DIR/SP/G            HT/PER HT/PER
                 (UTC) (F)     (DEG/KT/KT) (MB)    (FT/S) (FT/S)
CHESAPEAKE LIGHT NOT AVBL
64 E VA BEACH    0050   48 51  260/  4/  6 1028.7    5/ 8   5/ 8
DUCK             0100      47  120/  4/  5 1027.9
2 E DUCK         0100      46                N/A     4/ 8   2/11
OREGON INLET     0100   46 51   20/  4/  5 1028.6
13E OREGON INLT  0048      48                N/A     5/ 9   5/ 9
HATTERAS CG      0100   59 61   60/  2/  3 1028.5
DIAMOND BUOY     0110   71 73  200/  6/ 10 1028.7
CAPE LOOKOUT     0100          170/  5/  5 1028.5
BEAUFORT LAB     0100   62 61  170/  3/  4 1028.4
30 SE NEW RVR IN 0008   69 69  180/  8/ 12 1028.3
30 SE NEW RVR IN 0100      70                N/A     4/ 9   2/11
27 SE WRIGHTSVLE 0008   69 70  160/ 10/ 14 1028.3
5 SE WRIGHTSVLE  0108   63 60  170/  8/ 10 1027.6
225 S CAPE HAT   0050   71 73  130/  2/  4 1029.3    5/ 9   5/ 9
41 SE CHARLESTON 0110   68 68  110/  8/ 10 1027.7

$$




USA.gov is the U.S. government's official web portal to all federal, state and local government web resources and services.